Miscellaneous Local Product
Issued by NWS Hastings, NE

Home | Current Version | Previous Version | Graphics & Text | Print | Product List | Glossary On
Versions: 1 2 3 4 5 6 7 8 9 10 11 12 13 14 15 16 17 18 19 20 21 22 23 24 25 26 27 28 29 30 31 32 33 34 35 36 37 38 39 40 41 42 43 44 45 46 47 48 49 50
000
AXUS43 KGID 161902
MISGRI

GID CWA HOURLY WEATHER ROUNDUP
NATIONAL WEATHER SERVICE HASTINGS NE
200 PM CDT WED APR 16 2014

NOTE: "FAIR" INDICATES FEW OR NO CLOUDS BELOW 12,000 FEET WITH NO
SIGNIFICANT WEATHER AND/OR OBSTRUCTIONS TO VISIBILITY.

...SOUTH CENTRAL NEBRASKA...

CITY           SKY/WX    TMP DP  RH WIND       PRES   REMARKS
GRAND ISLAND   PTSUNNY   56  36  47 NW25G39   29.75R
HASTINGS       PTSUNNY   57  37  47 NW22G31   29.76R
KEARNEY        PTSUNNY   54  36  50 NW25G33   29.80R
ORD            CLOUDY    43  31  62 NW30G40   29.81R
YORK           SUNNY     63  37  39 W23       29.71R
AURORA         MOSUNNY   61  37  39 NW22      29.72R
LEXINGTON      MOSUNNY   53  37  55 N26G35    29.83R
HOLDREGE       PTSUNNY   56  37  50 NW28      29.78R
HEBRON         PTSUNNY   66  27  23 W12G22    29.71S

...NEBRASKA PANHANDLE...

CITY           SKY/WX    TMP DP  RH WIND       PRES   REMARKS
CHADRON        CLOUDY    43  37  79 NE15      29.96R
ALLIANCE       CLOUDY    45  33  63 N25G33    29.92R
SCOTTSBLUFF    PTSUNNY   53  24  32 NW25G35   29.93R
SIDNEY         PTSUNNY   53  25  33 N30G39    29.92R

...WESTERN AND NORTH CENTRAL NEBRASKA...

CITY           SKY/WX    TMP DP  RH WIND       PRES   REMARKS
VALENTINE      CLOUDY    34  29  82 NW17G29   29.93R WCI  23
AINSWORTH      CLOUDY    36  31  84 NW24G31   29.89R WCI  24
ONEILL         CLOUDY    36  29  77 NW30      29.81R WCI  22
BROKEN BOW     CLOUDY    45  35  68 NW26G36   29.83R
IMPERIAL       PTSUNNY   55  34  45 N23G35    29.89R
NORTH PLATTE   CLOUDY    50  34  54 N24G33    29.88R
MCCOOK         PTSUNNY   58  35  42 N28G39    29.84R

...EASTERN NEBRASKA...

CITY           SKY/WX    TMP DP  RH WIND       PRES   REMARKS
NORFOLK        PTSUNNY   52  32  46 NW22G36   29.70R
SO SIOUX CITY  PTSUNNY   61  27  27 SW23G31   29.67F
TEKAMAH        PTSUNNY   65  26  23 S24G38    29.67F
COLUMBUS       PTSUNNY   59  36  41 NW20G30   29.71R
ALBION         PTSUNNY   48  34  59 NW26G37   29.74R
OMAHA EPPLEY   PTSUNNY   65  26  23 S25G43    29.69F
OFFUTT AFB     PTSUNNY   66  29  24 S20G32    29.68F
MILLARD        PTSUNNY   64  28  25 S14G28    29.69F
LINCOLN        PTSUNNY   68  25  19 SW23G32   29.70F
NEBRASKA CITY  CLOUDY    65  29  25 SW32G39   29.73F
BEATRICE       PTSUNNY   65  26  22 SW28G35   29.72S
FALLS CITY     NOT AVBL

...NORTHERN KANSAS...

CITY           SKY/WX    TMP DP  RH WIND       PRES   REMARKS
GOODLAND       MOSUNNY   59  27  29 N31G44    29.87S
HILL CITY      MOSUNNY   65  33  30 N28G37    29.82R
PHILLIPSBURG   MOSUNNY   63  36  36 W20G26    29.79R
SMITH CENTER   MOSUNNY   63  37  39 NW21G32   29.79R
BELOIT         SUNNY     68  36  30 W15G24    29.75R
HAYS           MOSUNNY   66  34  30 NW21G28   29.81S
RUSSELL        PTSUNNY   68  36  30 NW17G28   29.77R
CONCORDIA      MOSUNNY   70  31  23 SW17G26   29.72F
SALINA         PTSUNNY   69  26  20 SW24G31   29.79S
TOPEKA         MOSUNNY   64  31  28 S20G33    29.84F



USA.gov is the U.S. government's official web portal to all federal, state and local government web resources and services.